Regional Weather Roundup
Issued by NWS Charleston, SC

Current Version | Previous Version | Graphics & Text | Print | Product List | Glossary On
Versions: 1 2 3 4 5 6 7 8 9 10 11 12 13 14 15 16 17 18 19 20 21 22 23 24 25 26 27 28 29 30 31 32 33 34 35 36 37 38 39 40 41 42 43 44 45 46 47 48 49 50
000
ASUS42 KCHS 201212
RWRCHS

REGIONAL WEATHER ROUNDUP
NATIONAL WEATHER SERVICE CHARLESTON SC
800 AM EDT FRI OCT 20 2017

NOTE: "FAIR" INDICATES FEW OR NO CLOUDS BELOW 12,000 FEET WITH NO
SIGNIFICANT WEATHER AND/OR OBSTRUCTIONS TO VISIBILITY.

NOT ALL STATIONS ARE QUALITY CONTROLLED. USE DATA WITH CAUTION...
ESPECIALLY DEWPOINT OBSERVATIONS.

SCZ027-030-031-034>040-042>050-201300-
...SOUTHEAST SOUTH CAROLINA...

CITY           SKY/WX    TMP DP  RH WIND       PRES   REMARKS
N CHARLESTON   FAIR      56  55  97 N5        30.24R
6HR MIN TEMP:  54; 6HR MAX TEMP:  57;

WATERFRONT PRK   N/A     63  56  78 N7        30.09R
JOHNS ISLAND   NOT AVBL
PINOPOLIS        N/A     64  59  82 VRB3      30.15R
MONCKS CORNER  FAIR      52  50  93 CALM      30.25R
SUMMERVILLE    FAIR      50  50 100 CALM      30.25S
BEAUFORT MCAS  FAIR      58  56  93 VRB3      30.24R
6HR MIN TEMP:  56; 6HR MAX TEMP:  61;

BEAUFORT ARPT  FAIR      59  55  88 N3        30.24R FOG
HILTON HEAD IS CLEAR     64  57  77 NE10        N/A
WALTERBORO     FAIR      50  48  93 CALM      30.26R
ALLENDALE        N/A     48  46  93 CALM        N/A

...SOUTHERN MIDLANDS AND PEE DEE...

CITY           SKY/WX    TMP DP  RH WIND       PRES   REMARKS
GEORGETOWN     FAIR      52  52 100 CALM      30.25R
KINGSTREE      FAIR      45  45 100 CALM      30.26R
ORANGEBURG     FAIR      48  46  93 CALM      30.26R
6HR MIN TEMP:  48; 6HR MAX TEMP:  52;

BARNWELL         N/A     45  43  93 CALM      30.26S
AIKEN          FAIR      41  39  93 CALM      30.30R
MANNING        HAZE      46  39  76 MISG      30.26R VSB<1/4
COLUMBIA       FAIR      44  43  96 CALM      30.26R
6HR MIN TEMP:  43; 6HR MAX TEMP:  49;

SUMTER         FAIR      50  45  83 CALM      30.24R
6HR MIN TEMP:  48; 6HR MAX TEMP:  56;

FLORENCE       FAIR      46  46 100 CALM      30.26R
6HR MIN TEMP:  46; 6HR MAX TEMP:  53;

MYRTLE BEACH   FAIR      56  53  90 CALM      30.25R
N MYRTLE BEACH FAIR      54  53  97 N5        30.24R
6HR MIN TEMP:  53; 6HR MAX TEMP:  57; 6HR PCP:  0.01;


$$

GAZ063-065-086>088-099>101-113>116-118-119-134>141-150-201300-
...SOUTHEAST GEORGIA...

CITY           SKY/WX    TMP DP  RH WIND       PRES   REMARKS
SAVANNAH ARPT  FAIR      54  54 100 N3        30.24R
6HR MIN TEMP:  54; 6HR MAX TEMP:  58;

HUNTER AAF     FAIR      60  55  84 N5        30.21R
6HR MIN TEMP:  59; 6HR MAX TEMP:  63;

FORT STEWART   FAIR      55  53  91 CALM      30.22R
6HR MIN TEMP:  53; 6HR MAX TEMP:  59;

STATESBORO     FAIR      48  48 100 CALM      30.26R
SYLVANIA       FAIR      48  48 100 CALM      30.26S
CLAXTON        FAIR      47  46  99 CALM      30.25S

...CSRA...CENTRAL AND FAR SOUTHEAST GEORGIA...

CITY           SKY/WX    TMP DP  RH WIND       PRES   REMARKS
THOMSON        FAIR      39  38  94 CALM      30.33R
AUGUSTA-BUSH   FAIR      43  42  97 CALM      30.27R
6HR MIN TEMP:  43; 6HR MAX TEMP:  50;

AUGUSTA-DANIEL FAIR      54  45  71 CALM      30.27S
SWAINSBORO     FAIR      46  46 100 MISG      30.27R
VIDALIA        FAIR      52  50  93 CALM      30.25S
EASTMAN        FAIR      44  44 100 CALM      30.28S FOG
HAZLEHURST     FAIR      51  49  92 CALM      30.24R
ALMA           FAIR      55  52  89 NW3       30.23R
6HR MIN TEMP:  53; 6HR MAX TEMP:  59;

WAYCROSS       FAIR      56  54  91 CALM      30.22S
JESUP          NOT AVBL
BAXLEY         FOG       50  50 100 N3        30.23R VSB 1
BRUNSWICK      FAIR      61  55  82 N6        30.21S
SAINT SIMONS   FAIR      64  61  90 N8        30.20R
6HR MIN TEMP:  64; 6HR MAX TEMP:  70;


$$

SCZ027-028-034-036>038-045-046-048>050-GAZ119-141-201300-
...LAKE AND SUPPLEMENTAL COASTAL OBSERVATIONS...

STATION/POSITION TIME  TEMP    WIND        PRES    WAVE   SWELL
                       AIR SEA DIR/SP/G            HT/PER HT/PER/DIR
                 (UTC) (F)     (DEG/KT/KT) (MB)    (FT/S) (FT/S/D)
WINYAH BAY       NOT AVBL
LAKE MURRAY      1120   52      CALM  /  1 1024.0
ACE BASIN NERRS  1045   58     350/  1     1024.0
FORT PULASKI     1148   65 73   10/  7/  9 1023.8R
SAPELO ISLAND    1100   63      20/  8     1023.0

$$

ANZ835-935-AMZ111-154-330-350-352-354-370-450-454-472-201300-
...C-MAN AND BUOY OBSERVATIONS...

STATION/POSITION TIME  TEMP    WIND        PRES    WAVE   SWELL
                       AIR SEA DIR/SP/G            HT/PER HT/PER/DIR
                 (UTC) (F)     (DEG/KT/KT) (MB)    (FT/S) (FT/S/D)
BUOY 41004       1150   75 80   30/ 10/ 14 1022.4R   4/ 8   3/ 90/ 8
BUOY 41008       1150   74 77   50/ 14/ 17 1022.0R   5/ 9   3/140/ 9
FOLLY BEACH CMAN 1100   64     350/  7/  8 1024.0R
CAPERS NEARSHORE 1108   65 73   20/ 12/ 17 1023.1R
FRIPP NEARSHORE  1108   69      20/ 14/ 17   N/A


STATION/POSITION TIME  TEMP    WIND        PRES    WAVE   SWELL
                       AIR SEA DIR/SP/G            HT/PER HT/PER/DIR
                 (UTC) (F)     (DEG/KT/KT) (MB)    (FT/S) (FT/S/D)
5E ST. MARYS GA  1200      77                N/A     5/ 9
FRYING PAN BUOY  1150   73 76   10/  6/  8 1022.8R   4/ 9   3/100/ 9
BUOY 41025       1150   72 81  320/  8/ 12 1022.7R   3/ 9   3/120/ 9
CAPE LOOKOUT NC  1100   66     350/  4/  4 1022.7R
BUOY 41002       1150   77 80   40/ 16/ 17 1020.6R   5/ 8   3/ 90/ 8
BUOY 41010       NOT AVBL
ST AUGUSTINE FL  1200   79 77   50/ 14/ 17 1021.2R


$$




USA.gov is the U.S. government's official web portal to all federal, state and local government web resources and services.